カタログに戻る

FENGYUN 1C DEB

運用中PO
NORAD 47007·DEBRIS·🇨🇳 China

打ち上げ May 10, 1999 から Taiyuan Satellite Launch Center

Loading…

次のパス (今後24時間)

TLE

経年Source: Space-Track

元期: Sep 9, 2026, 18:51 UTC

1 47007U 99025FAH 26252.78607780  .00002152  00000-0  11935-2 0  9994
2 47007  98.1917  91.5040 0233323   9.3257 351.2131 13.99243140826374

AllMySatでFENGYUN 1C DEBをリアルタイム追跡

Download on the App Store